Bethany, OK

9:14 PM CST on December 03, 2016 (GMT -0600)
Wiley Post

Weather History for KPWA - February, 2013

Change the Weather History Date:

Tuesday, February 5, 2013

  Actual Average Record
Temperature  
Mean Temperature 48 °F -  
Max Temperature 66 °F 49 °F 76 °F (1962)
Min Temperature 30 °F 26 °F 6 °F (1979)
Degree Days  
Heating Degree Days 17    
Moisture  
Dew Point 34 °F    
Average Humidity 66    
Maximum Humidity 100    
Minimum Humidity 23    
Precipitation  
Precipitation 0.00 in - - ()
Sea Level Pressure  
Sea Level Pressure 30.00 in    
Wind  
Wind Speed 3 mph (SSE)    
Max Wind Speed 8 mph    
Max Gust Speed -    
Visibility 7 miles    
Events Fog    
Averages and records for this station are not official NWS values.
T = Trace of Precipitation, MM = Missing Value Source: NWS Daily Summary

Daily Weather History Graph

Daily Weather History Graph

Search for Another Location

Airport or City:

Trip Planner

Search our weather history database for the weather conditions in past years. The results will help you decide how hot, cold, wet, or windy it might be!

Date:

Astronomy

Feb. 05, 2013 Rise Set
Actual Time 7:26 AM CST 6:02 PM CST
Civil Twilight 7:00 AM CST 6:29 PM CST
Nautical Twilight 6:30 AM CST 6:59 PM CST
Astronomical Twilight 6:00 AM CST 7:29 PM CST
Moon 3:06 AM CST (2/5) 1:25 PM CST (2/5)
Length of Visible Light 11h 29m
Length of Day
10h 36m
Waning Crescent, 26% of the Moon is Illuminated
Feb 5
Waning Crescent
Feb 10
New
Feb 17
First Quarter
Feb 25
Full
Mar 4
Last Quarter

Hourly Weather History & Observations

Time (CST) Temp. Windchill Dew Point Humidity Pressure Visibility Wind Dir Wind Speed Gust Speed Precip Events Conditions
12:53 AM 37.9 °F - 28.0 °F 68% 29.95 in 10.0 mi Calm Calm - N/A   Clear
1:53 AM 35.1 °F 32.2 °F 26.1 °F 70% 29.95 in 10.0 mi North 3.5 mph - N/A   Clear
2:53 AM 32.0 °F 27.5 °F 25.0 °F 75% 29.93 in 10.0 mi South 4.6 mph - N/A   Clear
3:53 AM 34.0 °F - 26.1 °F 73% 29.94 in 10.0 mi Calm Calm - N/A   Clear
4:53 AM 30.0 °F - 24.1 °F 79% 29.94 in 10.0 mi Calm Calm - N/A   Clear
5:53 AM 33.1 °F - 26.1 °F 75% 29.95 in 10.0 mi Calm Calm - N/A   Clear
6:53 AM 30.0 °F 25.2 °F 24.1 °F 79% 29.98 in 10.0 mi SSW 4.6 mph - N/A   Clear
7:53 AM 32.0 °F - 26.1 °F 79% 30.01 in 10.0 mi Calm Calm - N/A   Clear
8:53 AM 39.2 °F - 33.8 °F 81% 30.00 in 10.0 mi Calm Calm - N/A   Clear
9:53 AM 51.1 °F - 39.9 °F 66% 30.01 in 7.0 mi South 5.8 mph - N/A   Clear
10:53 AM 57.0 °F - 39.0 °F 51% 30.03 in 7.0 mi Calm Calm - N/A   Clear
11:53 AM 62.1 °F - 37.9 °F 41% 30.03 in 9.0 mi Calm Calm - N/A   Clear
12:53 PM 64.0 °F - 37.0 °F 37% 30.01 in 10.0 mi Variable 4.6 mph - N/A   Clear
1:53 PM 64.9 °F - 30.9 °F 28% 30.00 in 10.0 mi Variable 5.8 mph - N/A   Clear
2:53 PM 66.9 °F - 30.9 °F 26% 29.99 in 10.0 mi North 4.6 mph - N/A   Clear
3:53 PM 64.9 °F - 27.0 °F 24% 29.98 in 10.0 mi East 6.9 mph - N/A   Clear
4:53 PM 64.9 °F - 26.1 °F 23% 29.98 in 10.0 mi NE 3.5 mph - N/A   Clear
5:53 PM 61.0 °F - 26.1 °F 26% 29.98 in 10.0 mi NE 3.5 mph - N/A   Clear
6:53 PM 55.0 °F - 27.0 °F 34% 30.00 in 10.0 mi NE 4.6 mph - N/A   Clear
7:53 PM 57.0 °F - 28.0 °F 33% 30.01 in 10.0 mi East 3.5 mph - N/A   Clear
8:53 PM 50.0 °F - 42.1 °F 74% 30.03 in 7.0 mi South 8.1 mph - N/A   Clear
9:49 PM 46.4 °F 43.5 °F 44.6 °F 93% 30.03 in 2.0 mi SSW 5.8 mph - N/A   Clear
9:53 PM 46.9 °F - 44.1 °F 90% 30.04 in 2.0 mi SSW 5.8 mph - N/A   Clear
10:00 PM 46.4 °F 44.3 °F 44.6 °F 93% 30.04 in 1.0 mi SSW 4.6 mph - N/A   Clear
10:08 PM 46.4 °F 44.3 °F 44.6 °F 93% 30.04 in 0.5 mi SSW 4.6 mph - N/A Fog Fog
10:23 PM 48.2 °F - 46.4 °F 93% 30.04 in 0.2 mi South 4.6 mph - N/A Fog Fog
10:41 PM 48.2 °F - 46.4 °F 93% 30.03 in 0.2 mi South 4.6 mph - N/A Fog Fog
10:49 PM 44.6 °F 42.2 °F 44.6 °F 100% 30.03 in 0.2 mi South 4.6 mph - N/A Fog Fog
10:53 PM 44.1 °F 41.5 °F 43.0 °F 96% 30.04 in 0.2 mi South 4.6 mph - N/A Fog Fog
11:53 PM 43.0 °F 41.3 °F 42.1 °F 97% 30.02 in 0.2 mi South 3.5 mph - N/A Fog Fog